星链-35845(STARLINK-35845)

导读

STARLINK-35849是美国星链(Starlink)项目的卫星,于2025年11月6日发射,属于SpaceX打造的低轨卫星互联网星座组网卫星。它将和其他星链卫星协同,为全球提供高速宽带互联网服务,尤其覆盖偏远地区,进一步扩充星链星座的服务覆盖范围与通信容量。

基本信息
目录编号:
66348
目录名称:
STARLINK-35849
国际标识:
2025-254A
轨道中心:
EARTH
卫星名称:
星链-35845
卫星全名:
星链-35845(STARLINK-35845)
卫星状态:
在轨 (已飞行302 天)
发射日期:
2025-11-06 UTC
国别 :
美国 (US)
星等 :
--
轨道信息
数据来源 国际轨道数据
星历时间: 2026-09-04T13:24:07+0800
14小时前
查看轨道信息
半长轴: 6840.805km
偏心率: 0.0001096
轨道倾角: 53.158°
近地点辐角 110.142°
升交点赤经 121.518°
平近点角 249.970°
近地点: 461.918km
远地点: 463.418km
周期: 93.847分钟
每日圈数: 15.34412
详细信息
固有亮度:
5
最大亮度:
2.5
卫星平台:
Starlink V1.0
覆盖范围:
全球
运营商:
太空探索技术公司
运营商所在国:
美国
制造商(研发单位):
太空探索技术公司
制造商所在国:
美国
使用方式:
暂无
卫星简介
Starlink 计划是 SpaceX 推出的全球卫星互联网项目,通过发射低轨道卫星,为全球尤其是偏远地区提供高速、低延迟的互联网服务。自 2019 年起,Starlink 已部署数千颗卫星,旨在缩小全球数字鸿沟,推动互联网普及。该项目还为军事、航空等行业提供通信支持,带来广泛经济效益。
2D轨道图
3D轨道图
轨道高度分析图
轨道倾角分析图
轨道综合分析图
查看轨道综合分析图
交会数据列表
事件ID 空间交会对象 最接近时刻(TCA) 交会距离 交会风险概率(CRP) 交会风险指数(CRI) 操作
CDM_260906-171005-236606-634821
2026-09-06T
17:10:03+0000
0.880 km
远距离
1.128529E-5 中风险 0.56
CDM_260906-131505-236606-634821
2026-09-06T
13:15:34+0000
1.021 km
极远距离
6.786199E-6 低风险 0.52
CDM_260907-063205-889106-634821
2026-09-07T
06:32:36+0000
1.751 km
极远距离
2.016509E-6 低风险 0.41
CDM_260906-114105-236606-634821
2026-09-06T
11:41:46+0000
1.563 km
极远距离
1.720647E-6 低风险 0.4
CDM_260906-153605-236606-634821
2026-09-06T
15:36:15+0000
1.707 km
极远距离
1.34693E-6 低风险 0.38